DW6064 Weather Reports


Display with metric or nautical units.
time (UTC)temp
F
wind
direction
speed
MPH
gust
MPH
rain 1hr
in
rain 24hr
in
rain mn
in
humidity
%
barometer
mb
20200330014029 53 39 0.0 2.0 0.00 0.02 0.02 90 1010.4
20200330013527 53 46 1.0 2.0 0.00 0.02 0.02 90 1010.4
20200330013033 53 57 0.0 2.0 0.00 0.02 0.02 90 1010.4
20200330012531 53 63 0.0 2.0 0.00 0.02 0.02 90 1010.3
20200330012036 53 73 0.0 2.0 0.00 0.02 0.02 90 1010.4
20200330011536 53 59 0.0 3.0 0.00 0.02 0.02 90 1010.3
20200330011024 53 54 1.0 3.0 0.00 0.02 0.02 90 1010.1
20200330010523 53 17 1.0 3.0 0.00 0.02 0.02 90 1010.1
20200330010028 53 39 0.0 1.0 0.00 0.02 0.02 90 1010.1
20200330005527 53 61 0.0 0.0 0.00 0.02 0.02 90 1010.0
20200330005032 53 54 0.0 0.0 0.00 0.02 0.02 90 1010.0
20200330004530 53 54 0.0 2.0 0.00 0.02 0.02 90 1009.9
20200330004035 53 56 0.0 2.0 0.00 0.02 0.02 90 1010.0
20200330003535 53 63 1.0 2.0 0.00 0.02 0.02 90 1009.5
20200330003040 53 40 0.0 2.0 0.00 0.02 0.02 90 1009.5
20200330002537 53 33 0.0 2.0 0.00 0.02 0.02 90 1009.6
20200330002022 53 28 0.0 1.0 0.00 0.02 0.02 90 1009.6
20200330001527 53 51 0.0 2.0 0.00 0.02 0.02 90 1009.6
20200330001032 53 71 1.0 2.0 0.00 0.02 0.02 89 1009.5
20200330000531 53 65 0.0 3.0 0.00 0.02 0.02 89 1009.4
20200330000036 53 72 1.0 3.0 0.00 0.02 0.02 89 1009.4
20200329235534 53 74 0.0 3.0 0.00 0.30 0.02 89 1009.4
20200329235041 53 61 1.0 6.0 0.00 0.30 0.02 89 1009.3
20200329234537 53 42 1.0 6.0 0.00 0.30 0.02 89 1009.3
20200329234023 54 56 1.0 3.0 0.00 0.30 0.02 89 1009.2
20200329233521 54 61 1.0 4.0 0.00 0.30 0.02 89 1009.2
20200329233026 54 59 1.0 6.0 0.00 0.30 0.02 88 1009.2
20200329232527 54 71 1.0 6.0 0.00 0.30 0.02 88 1009.0
20200329232033 54 46 1.0 3.0 0.00 0.30 0.02 88 1009.0
20200329231535 54 55 0.0 5.0 0.00 0.30 0.02 88 1009.0
20200329231021 54 49 1.0 8.0 0.00 0.30 0.02 88 1009.0
20200329230540 54 36 2.0 8.0 0.00 0.30 0.02 88 1009.0
20200329230026 55 48 2.0 8.0 0.00 0.30 0.02 88 1009.1
20200329225525 55 65 2.0 11.0 0.00 0.30 0.02 88 1008.9
20200329225030 55 39 6.0 12.0 0.00 0.30 0.02 87 1008.6
20200329224529 55 335 3.0 12.0 0.00 0.30 0.02 87 1009.1
20200329224034 55 314 2.0 9.0 0.00 0.30 0.02 87 1009.0
20200329223529 55 14 3.0 9.0 0.00 0.30 0.02 87 1008.7
20200329223034 55 26 2.0 9.0 0.00 0.30 0.02 87 1008.7
20200329222534 55 14 3.0 7.0 0.00 0.30 0.02 87 1008.5
20200329222022 55 47 1.0 9.0 0.00 0.30 0.02 87 1008.6
20200329221522 55 355 2.0 9.0 0.00 0.30 0.02 87 1008.7
20200329221027 55 37 5.0 11.0 0.00 0.30 0.02 86 1008.7
20200329220525 56 21 3.0 11.0 0.00 0.30 0.02 86 1008.5
20200329220031 56 27 2.0 10.0 0.00 0.30 0.02 86 1008.3
20200329215532 56 34 3.0 10.0 0.00 0.30 0.02 86 1008.3
20200329215038 56 40 3.0 8.0 0.00 0.30 0.02 86 1008.1
20200329214535 56 18 1.0 9.0 0.00 0.30 0.02 85 1008.2
20200329214040 57 44 1.0 9.0 0.00 0.30 0.02 85 1008.0
20200329213540 57 11 2.0 6.0 0.00 0.30 0.02 85 1007.9
20200329213025 57 14 0.0 6.0 0.00 0.30 0.02 85 1007.9
20200329212523 57 42 0.0 8.0 0.00 0.30 0.02 84 1007.9
20200329212034 58 46 2.0 8.0 0.00 0.30 0.02 84 1007.8
20200329211532 58 16 2.0 6.0 0.00 0.30 0.02 84 1007.8
20200329211038 58 75 0.0 6.0 0.00 0.30 0.02 85 1007.8
20200329210535 58 355 0.0 8.0 0.00 0.30 0.02 83 1007.8
20200329210041 59 19 0.0 9.0 0.01 0.30 0.02 83 1007.7
20200329205538 59 49 4.0 9.0 0.01 0.30 0.02 84 1007.7
20200329205025 59 351 1.0 9.0 0.01 0.30 0.02 83 1007.7
20200329204522 59 340 0.0 6.0 0.01 0.30 0.02 83 1007.5
20200329204026 59 31 1.0 9.0 0.01 0.30 0.02 84 1007.4
20200329203525 59 11 2.0 9.0 0.01 0.30 0.02 85 1007.5
20200329203029 59 57 1.0 5.0 0.01 0.30 0.02 85 1007.5
20200329202529 59 38 1.0 8.0 0.01 0.30 0.02 86 1007.5
20200329202040 59 349 3.0 8.0 0.01 0.30 0.02 87 1007.7
20200329201538 58 24 3.0 6.0 0.01 0.30 0.02 87 1007.8
20200329201023 58 26 0.0 8.0 0.01 0.30 0.02 87 1007.7
20200329200523 58 36 1.0 8.0 0.01 0.30 0.02 89 1007.9
20200329200029 58 344 0.0 2.0 0.00 0.29 0.01 90 1007.9
20200329195529 57 66 0.0 5.0 0.00 0.30 0.01 90 1007.8
20200329195035 57 12 1.0 5.0 0.00 0.30 0.01 90 1008.0
20200329194534 57 42 2.0 5.0 0.00 0.30 0.01 91 1008.0
20200329194039 56 23 2.0 5.0 0.00 0.30 0.01 91 1007.9
20200329193539 56 5 1.0 3.0 0.00 0.30 0.01 91 1008.0
20200329193024 55 61 0.0 3.0 0.00 0.30 0.01 91 1008.1
20200329192527 55 355 0.0 3.0 0.00 0.30 0.01 91 1008.3
20200329192032 55 320 0.0 4.0 0.00 0.30 0.01 91 1008.3
20200329191530 55 309 2.0 4.0 0.00 0.30 0.01 91 1008.4
20200329191035 55 340 1.0 4.0 0.00 0.30 0.01 91 1008.6
20200329190533 54 338 2.0 5.0 0.00 0.30 0.01 91 1008.6
20200329190039 54 332 2.0 5.0 0.00 0.30 0.01 91 1008.6
20200329185538 54 344 3.0 5.0 0.00 0.30 0.01 91 1008.6
20200329185023 54 342 4.0 6.0 0.00 0.30 0.01 91 1008.7
20200329184521 53 302 5.0 6.0 0.00 0.30 0.01 92 1008.9
20200329184026 53 320 4.0 5.0 0.00 0.30 0.01 91 1009.0
20200329183525 53 16 0.0 4.0 0.00 0.30 0.01 91 1009.1
20200329183031 53 19 2.0 4.0 0.00 0.30 0.01 92 1009.0
20200329182535 53 48 0.0 3.0 0.00 0.30 0.01 92 1009.0
20200329182040 52 48 2.0 4.0 0.00 0.30 0.01 91 1009.2
20200329181538 52 51 2.0 5.0 0.00 0.30 0.01 91 1009.3
20200329181024 52 5 0.0 5.0 0.00 0.30 0.01 91 1009.5
20200329180523 52 15 0.0 4.0 0.00 0.30 0.01 91 1009.8
20200329180030 52 40 1.0 4.0 0.00 0.30 0.01 91 1009.9
20200329175526 52 338 2.0 6.0 0.00 0.30 0.01 91 1010.0
20200329175032 52 40 2.0 6.0 0.00 0.30 0.01 91 1010.0
20200329174529 51 25 1.0 6.0 0.00 0.30 0.01 91 1010.1
20200329174035 51 338 1.0 6.0 0.00 0.30 0.01 91 1010.0
20200329173534 51 5 2.0 8.0 0.00 0.30 0.01 91 1009.8
20200329173024 51 19 3.0 8.0 0.00 0.30 0.01 91 1009.9
20200329172522 51 36 2.0 5.0 0.00 0.30 0.01 91 1009.9
20200329172027 51 31 0.0 6.0 0.00 0.30 0.01 91 1010.1
20200329171528 51 26 3.0 6.0 0.00 0.30 0.01 91 1010.1
20200329171033 50 39 2.0 5.0 0.00 0.30 0.01 91 1010.1
20200329170532 50 32 1.0 5.0 0.00 0.30 0.01 91 1010.2
20200329170036 50 32 3.0 6.0 0.00 0.30 0.01 91 1010.2
20200329165535 50 32 2.0 6.0 0.00 0.30 0.01 91 1010.3
20200329165021 50 64 4.0 6.0 0.00 0.30 0.01 91 1010.3
20200329164539 50 19 2.0 6.0 0.00 0.30 0.01 91 1010.4
20200329164024 50 355 1.0 6.0 0.00 0.30 0.01 91 1010.4
20200329163522 50 56 2.0 9.0 0.00 0.30 0.01 91 1010.4
20200329163032 50 81 4.0 10.0 0.00 0.30 0.01 91 1010.6
20200329162530 50 42 1.0 10.0 0.00 0.30 0.01 91 1010.6
20200329162036 50 36 5.0 10.0 0.00 0.30 0.01 91 1011.0
20200329161534 50 30 4.0 10.0 0.00 0.30 0.01 91 1011.2
20200329161039 50 34 3.0 6.0 0.00 0.30 0.01 91 1011.7
20200329160538 51 59 1.0 5.0 0.00 0.30 0.01 91 1012.1
20200329160023 51 5 3.0 10.0 0.00 0.30 0.01 91 1012.1
20200329155522 51 350 4.0 14.0 0.00 0.34 0.01 91 1012.0
20200329155029 52 294 8.0 14.0 0.00 0.34 0.01 92 1012.0
20200329154527 52 296 7.0 14.0 0.00 0.34 0.01 91 1011.9
20200329154033 52 273 11.0 14.0 0.00 0.34 0.01 92 1011.9
20200329153532 52 288 6.0 13.0 0.00 0.34 0.01 92 1010.5
20200329153021 51 247 4.0 13.0 0.00 0.34 0.01 91 1010.5
20200329152540 51 85 1.0 17.0 0.00 0.34 0.01 92 1010.8
20200329152026 50 163 6.0 21.0 0.00 0.34 0.01 91 1010.6
20200329151525 50 154 13.0 21.0 0.00 0.34 0.01 91 1010.0
20200329151030 50 137 10.0 16.0 0.00 0.34 0.01 91 1010.2
20200329150528 50 120 3.0 13.0 0.00 0.34 0.01 91 1012.9
20200329150033 50 188 1.0 4.0 0.00 0.34 0.01 91 1013.9
20200329145530 50 259 1.0 4.0 0.00 0.42 0.01 91 1014.0
20200329145035 50 246 0.0 1.0 0.00 0.42 0.01 91 1014.7
20200329144535 49 251 0.0 1.0 0.00 0.42 0.01 91 1014.6
20200329144039 49 215 0.0 0.0 0.00 0.42 0.01 91 1014.4
20200329143524 49 240 0.0 3.0 0.00 0.42 0.01 91 1014.3
20200329143029 49 270 0.0 5.0 0.00 0.42 0.01 91 1014.3
20200329142530 49 287 2.0 4.0 0.00 0.42 0.01 91 1014.5
20200329142035 49 28 0.0 0.0 0.00 0.42 0.01 91 1014.1
20200329141533 49 28 0.0 2.0 0.00 0.42 0.01 91 1013.9
20200329141039 49 28 0.0 5.0 0.01 0.42 0.01 91 1013.9
20200329140537 49 297 1.0 5.0 0.01 0.42 0.01 91 1014.5
20200329140024 49 309 2.0 8.0 0.01 0.42 0.01 91 1014.5
20200329135522 49 342 3.0 8.0 0.01 0.45 0.01 91 1014.3
20200329135027 49 317 1.0 3.0 0.01 0.45 0.01 91 1013.8
20200329134527 49 61 0.0 3.0 0.01 0.45 0.01 91 1013.2
20200329134032 49 69 1.0 4.0 0.01 0.45 0.01 91 1013.2
20200329133535 49 44 1.0 5.0 0.01 0.45 0.01 91 1013.3
20200329133039 48 267 0.0 6.0 0.01 0.45 0.01 91 1014.6
20200329132539 48 233 2.0 9.0 0.01 0.45 0.01 91 1014.7
20200329132024 48 327 4.0 9.0 0.01 0.45 0.01 91 1013.5
20200329131522 48 360 0.0 5.0 0.01 0.45 0.01 91 1013.8
20200329131028 48 350 0.0 5.0 0.00 0.44 0.00 91 1014.2
20200329130527 48 298 3.0 5.0 0.00 0.44 0.00 91 1014.8
20200329130032 48 317 0.0 4.0 0.00 0.44 0.00 91 1014.2
20200329125531 48 66 1.0 4.0 0.00 0.45 0.00 91 1013.6
20200329125037 48 80 1.0 10.0 0.00 0.45 0.00 91 1013.7
20200329124534 48 107 3.0 10.0 0.00 0.45 0.00 91 1013.5
20200329124024 48 63 2.0 6.0 0.00 0.45 0.00 91 1014.4
20200329123522 48 334 2.0 9.0 0.00 0.45 0.00 91 1014.7
20200329123028 48 62 3.0 9.0 0.00 0.45 0.00 91 1013.8
20200329122525 48 38 1.0 6.0 0.00 0.45 0.00 91 1013.9
20200329122032 47 71 2.0 5.0 0.00 0.45 0.00 91 1013.8
20200329121528 48 66 1.0 5.0 0.00 0.45 0.00 91 1014.4
20200329121034 48 28 1.0 5.0 0.00 0.45 0.00 91 1014.4
20200329120531 47 344 1.0 5.0 0.00 0.45 0.00 91 1014.7
20200329120037 47 346 3.0 5.0 0.00 0.45 0.00 91 1015.0
20200329115534 47 302 1.0 3.0 0.00 0.66 0.00 91 1014.9
20200329115042 47 25 0.0 4.0 0.00 0.66 0.00 91 1014.3
20200329114538 47 348 1.0 4.0 0.00 0.66 0.00 91 1014.1
20200329114028 47 5 0.0 2.0 0.00 0.66 0.00 91 1014.2
20200329113527 47 19 0.0 2.0 0.00 0.66 0.00 91 1013.9
20200329113033 47 59 1.0 4.0 0.00 0.66 0.00 91 1013.9
20200329112529 47 70 1.0 4.0 0.00 0.66 0.00 91 1013.4
20200329112035 47 56 1.0 3.0 0.00 0.66 0.00 91 1013.6
20200329111533 47 40 0.0 0.0 0.00 0.66 0.00 91 1013.7
20200329111038 47 57 0.0 2.0 0.00 0.66 0.00 91 1013.9
20200329110537 47 46 0.0 3.0 0.00 0.66 0.00 91 1013.7
20200329110023 47 13 1.0 3.0 0.00 0.66 0.00 91 1013.8
20200329105522 47 57 0.0 0.0 0.00 0.69 0.00 91 1013.5
20200329105027 47 42 0.0 0.0 0.00 0.69 0.00 91 1013.2
20200329104525 47 40 0.0 0.0 0.00 0.69 0.00 91 1013.4
20200329104035 47 20 0.0 3.0 0.00 0.69 0.00 91 1013.4
20200329103531 47 17 0.0 5.0 0.00 0.69 0.00 91 1013.3
20200329103037 47 345 2.0 9.0 0.00 0.69 0.00 91 1013.3
20200329102537 47 37 2.0 9.0 0.00 0.69 0.00 91 1012.3
20200329102023 47 46 1.0 4.0 0.00 0.69 0.00 91 1012.9
20200329101521 47 32 1.0 4.0 0.00 0.69 0.00 91 1012.8
20200329101027 47 36 1.0 3.0 0.00 0.69 0.00 91 1012.9
20200329100525 47 29 0.0 0.0 0.00 0.69 0.00 91 1013.0
20200329100031 47 23 0.0 0.0 0.00 0.69 0.00 91 1013.1
20200329095528 47 340 0.0 0.0 0.00 0.71 0.00 91 1012.8
20200329095033 47 340 0.0 0.0 0.00 0.71 0.00 91 1012.7
20200329094531 47 19 0.0 0.0 0.00 0.71 0.00 91 1012.6
20200329094021 47 19 0.0 0.0 0.00 0.71 0.00 91 1012.8
20200329093540 47 74 0.0 0.0 0.00 0.71 0.00 91 1012.8
20200329093026 47 74 0.0 0.0 0.00 0.71 0.00 91 1012.8
20200329092523 47 74 0.0 0.0 0.00 0.71 0.00 91 1012.6
20200329092029 47 69 0.0 0.0 0.00 0.71 0.00 91 1012.5
20200329091031 47 32 0.0 2.0 0.00 0.71 0.00 91 1012.8
20200329090528 47 28 0.0 2.0 0.00 0.71 0.00 91 1012.7
20200329090034 47 360 1.0 2.0 0.00 0.71 0.00 91 1012.7
20200329085533 47 355 0.0 3.0 0.00 0.80 0.00 91 1012.6
20200329085039 48 337 1.0 3.0 0.00 0.80 0.00 91 1012.4
20200329084536 48 14 1.0 3.0 0.00 0.80 0.00 91 1012.2
20200329084026 48 45 0.0 3.0 0.00 0.80 0.00 91 1012.2
20200329083523 48 38 0.0 2.0 0.00 0.80 0.00 91 1012.2
20200329083028 48 26 0.0 4.0 0.00 0.80 0.00 91 1012.4
20200329082527 48 10 0.0 5.0 0.00 0.80 0.00 91 1012.8
20200329082031 48 300 1.0 5.0 0.00 0.80 0.00 91 1013.1
20200329081536 48 107 0.0 0.0 0.00 0.80 0.00 91 1012.9
20200329081033 48 107 0.0 2.0 0.00 0.80 0.00 91 1012.7
20200329080534 48 28 0.0 4.0 0.00 0.80 0.00 91 1012.6
20200329075534 48 296 0.0 2.0 0.00 0.89 0.00 91 1013.3
20200329075040 48 284 0.0 0.0 0.00 0.89 0.00 91 1012.9
20200329074523 48 284 0.0 0.0 0.00 0.89 0.00 91 1012.8
20200329074028 48 284 0.0 0.0 0.00 0.89 0.00 91 1012.8
20200329073527 48 284 0.0 0.0 0.00 0.89 0.00 91 1013.1
20200329073033 48 284 0.0 0.0 0.00 0.89 0.00 91 1013.1
20200329072530 48 284 0.0 1.0 0.00 0.89 0.00 91 1013.4
20200329072035 48 76 0.0 2.0 0.00 0.89 0.00 91 1013.3
20200329071535 48 67 1.0 2.0 0.00 0.89 0.00 91 1012.9
20200329071041 48 71 1.0 3.0 0.00 0.89 0.00 91 1012.7
20200329070538 48 78 1.0 3.0 0.00 0.89 0.00 91 1012.8
20200329070024 48 23 0.0 2.0 0.00 0.89 0.00 91 1013.6
20200329065523 48 360 1.0 3.0 0.00 0.93 0.00 91 1013.5
20200329065028 48 5 1.0 3.0 0.00 0.93 0.00 91 1013.2
20200329064530 49 24 1.0 3.0 0.00 0.93 0.00 91 1013.7
20200329064035 49 44 0.0 3.0 0.00 0.93 0.00 91 1013.8
20200329063535 49 28 1.0 3.0 0.00 0.93 0.00 91 1014.3
20200329063041 49 57 1.0 3.0 0.00 0.93 0.00 91 1014.1
20200329062521 49 34 1.0 4.0 0.00 0.93 0.00 91 1014.4
20200329062026 49 52 2.0 5.0 0.00 0.93 0.00 91 1014.3
20200329061524 49 29 1.0 6.0 0.00 0.93 0.00 91 1014.6
20200329061105 49 22 1.0 4.0 0.00 0.93 0.00 91 1014.6
20200329060529 49 33 1.0 3.0 0.00 0.93 0.00 91 1014.9
20200329060036 49 347 1.0 3.0 0.00 0.93 0.00 91 1015.1
20200329055532 49 319 1.0 3.0 0.00 0.99 0.00 91 1014.9
20200329055022 49 5 0.0 0.0 0.00 0.99 0.00 91 1014.6
20200329054521 49 63 0.0 0.0 0.00 0.99 0.00 91 1014.4
20200329054026 49 63 0.0 1.0 0.00 0.99 0.00 91 1014.8
20200329053525 49 63 0.0 2.0 0.00 0.99 0.00 91 1015.0
20200329053031 49 61 0.0 3.0 0.00 0.99 0.00 91 1014.8
20200329052530 49 57 1.0 3.0 0.00 0.99 0.00 91 1014.9
20200329052036 49 43 0.0 2.0 0.00 0.99 0.00 91 1015.2
20200329051534 49 30 0.0 2.0 0.00 0.99 0.00 91 1015.1
20200329051040 49 40 1.0 2.0 0.00 0.99 0.00 91 1015.0
20200329050538 49 49 1.0 2.0 0.00 0.99 0.00 91 1014.8
20200329050024 49 36 1.0 2.0 0.00 0.99 0.00 91 1014.6
20200329045523 49 42 1.0 3.0 0.00 0.99 0.00 91 1014.3
20200329045033 49 33 2.0 3.0 0.00 0.99 0.00 91 1014.0
20200329044532 49 51 1.0 3.0 0.00 0.99 0.00 91 1013.8
20200329044036 49 57 2.0 3.0 0.00 0.99 0.00 91 1013.5
20200329043534 49 66 1.0 3.0 0.00 0.99 0.00 91 1014.2
20200329043039 49 74 1.0 3.0 0.00 0.99 0.00 91 1014.4
20200329042536 49 63 2.0 3.0 0.00 0.99 0.00 91 1014.7
20200329042022 49 41 0.0 2.0 0.00 0.99 0.00 91 1015.1
20200329041541 49 73 1.0 2.0 0.00 0.99 0.00 91 1015.1
20200329041026 49 86 0.0 2.0 0.00 0.99 0.00 91 1015.2
20200329040526 49 64 0.0 4.0 0.00 0.99 0.00 91 1015.3
20200329040032 49 40 0.0 4.0 0.00 0.99 0.00 91 1015.3
20200329035530 49 38 1.0 2.0 0.00 0.99 0.99 91 1015.3
20200329035039 49 360 1.0 2.0 0.00 0.99 0.99 91 1015.0
20200329034539 49 39 1.0 2.0 0.00 0.99 0.99 91 1014.6
20200329034024 49 50 1.0 4.0 0.00 0.99 0.99 91 1014.7
20200329033523 49 360 1.0 4.0 0.00 0.99 0.99 91 1014.8
20200329033028 49 355 1.0 2.0 0.00 0.99 0.99 91 1014.5
20200329032528 49 30 0.0 2.0 0.00 0.99 0.99 91 1014.3
20200329032033 49 28 1.0 2.0 0.00 0.99 0.99 91 1015.0
20200329031530 49 332 0.0 3.0 0.00 0.99 0.99 91 1015.0
20200329031035 49 330 1.0 3.0 0.00 0.99 0.99 91 1014.9
20200329030533 49 317 0.0 0.0 0.00 0.99 0.99 91 1014.3
20200329030039 49 317 0.0 0.0 0.00 0.99 0.99 91 1014.3
20200329025535 49 317 0.0 0.0 0.00 0.99 0.99 91 1014.1
20200329025024 49 317 0.0 0.0 0.00 0.99 0.99 91 1014.1
20200329024523 49 317 0.0 0.0 0.00 0.99 0.99 91 1014.1
20200329024028 49 317 0.0 0.0 0.00 0.99 0.99 91 1014.1
20200329023526 49 317 0.0 0.0 0.00 0.99 0.99 91 1014.2
20200329023032 49 317 0.0 0.0 0.00 0.99 0.99 91 1014.4
20200329022531 49 317 0.0 0.0 0.00 0.99 0.99 91 1014.4
20200329022036 49 317 0.0 0.0 0.00 0.99 0.99 91 1014.4
20200329021535 49 317 0.0 0.0 0.00 0.99 0.99 91 1014.5
20200329021041 49 317 0.0 0.0 0.00 0.99 0.99 90 1014.5
20200329020537 49 317 0.0 0.0 0.00 0.99 0.99 90 1014.5
20200329020023 49 317 0.0 0.0 0.00 0.99 0.99 90 1014.5
20200329015525 49 325 0.0 1.0 0.00 0.99 0.99 90 1014.3
20200329015030 49 306 0.0 2.0 0.00 0.99 0.99 90 1014.0
20200329014530 49 304 0.0 4.0 0.00 0.99 0.99 90 1013.9